Fort Meade, MD

9:00 AM EST on November 24, 2017 (GMT -0500)
Tipton

Weather History for KFME - January, 2013

Change the Weather History Date:

Tuesday, January 22, 2013

  Actual Average (KBWI) Record (KBWI)
Temperature  
Mean Temperature 22 °F -  
Max Temperature 28 °F 40 °F 69 °F (1927)
Min Temperature 14 °F 23 °F -7 °F (1984)
Degree Days  
Heating Degree Days 44    
Moisture  
Dew Point -1 °F    
Average Humidity 38    
Maximum Humidity 53    
Minimum Humidity 24    
Precipitation  
Precipitation 0.00 in - - ()
Sea Level Pressure  
Sea Level Pressure 30.19 in    
Wind  
Wind Speed 13 mph (WNW)    
Max Wind Speed 21 mph    
Max Gust Speed 30 mph    
Visibility 10 miles    
Events      
Averages and records for this station are not official NWS values.
T = Trace of Precipitation, MM = Missing Value Source: NWS Daily Summary

Daily Weather History Graph

Daily Weather History Graph

Search for Another Location

Airport or City:

Trip Planner

Search our weather history database for the weather conditions in past years. The results will help you decide how hot, cold, wet, or windy it might be!

Date:

Astronomy

Jan. 22, 2013 Rise Set
Actual Time 7:21 AM EST 5:16 PM EST
Civil Twilight 6:52 AM EST 5:45 PM EST
Nautical Twilight 6:19 AM EST 6:18 PM EST
Astronomical Twilight 5:47 AM EST 6:49 PM EST
Moon 1:38 PM EST (1/22) 3:40 AM EST (1/22)
Length of Visible Light 10h 53m
Length of Day
9h 55m
Waxing Gibbous, 82% of the Moon is Illuminated
Jan 22
Waxing Gibbous
Jan 26
Full
Feb 3
Last Quarter
Feb 10
New
Feb 17
First Quarter

Hourly Weather History & Observations

Time (EST) Temp. Windchill Dew Point Humidity Pressure Visibility Wind Dir Wind Speed Gust Speed Precip Events Conditions
12:00 AM 28.4 °F 16.2 °F 12.2 °F 51% 29.95 in 10.0 mi NW 17.3 mph 29.9 mph N/A   Clear
12:21 AM 28.4 °F 15.8 °F 12.2 °F 51% 29.95 in 10.0 mi NW 18.4 mph 26.5 mph N/A   Clear
12:42 AM 28.4 °F 17.5 °F 12.2 °F 51% 29.96 in 10.0 mi NW 13.8 mph 25.3 mph N/A   Clear
1:06 AM 28.4 °F 17.5 °F 10.4 °F 47% 29.96 in 10.0 mi NW 13.8 mph 27.6 mph N/A   Clear
1:27 AM 26.6 °F 14.7 °F 10.4 °F 51% 29.99 in 10.0 mi NW 15.0 mph 28.8 mph N/A   Clear
1:48 AM 26.6 °F 16.2 °F 8.6 °F 47% 30.00 in 10.0 mi NW 11.5 mph 24.2 mph N/A   Clear
2:09 AM 26.6 °F 15.7 °F 5.0 °F 40% 30.02 in 10.0 mi WNW 12.7 mph 24.2 mph N/A   Clear
2:51 AM 23.0 °F 12.4 °F 5.0 °F 46% 30.05 in 10.0 mi NW 10.4 mph 19.6 mph N/A   Clear
3:12 AM 23.0 °F 11.7 °F 5.0 °F 46% 30.06 in 10.0 mi WNW 11.5 mph 17.3 mph N/A   Clear
3:33 AM 21.2 °F 7.8 °F 3.2 °F 46% 30.06 in 10.0 mi NW 15.0 mph 21.9 mph N/A   Clear
3:54 AM 21.2 °F 10.9 °F 3.2 °F 46% 30.07 in 10.0 mi WNW 9.2 mph 17.3 mph N/A   Clear
4:18 AM 21.2 °F 11.7 °F -0.4 °F 39% 30.08 in 10.0 mi WNW 8.1 mph 20.7 mph N/A   Clear
4:39 AM 21.2 °F 8.3 °F -0.4 °F 39% 30.08 in 10.0 mi WNW 13.8 mph 24.2 mph N/A   Clear
5:00 AM 21.2 °F 10.9 °F 1.4 °F 42% 30.10 in 10.0 mi WNW 9.2 mph - N/A   Clear
5:21 AM 19.4 °F 10.4 °F 3.2 °F 49% 30.11 in 10.0 mi NW 6.9 mph - N/A   Clear
5:42 AM 19.4 °F 11.5 °F 3.2 °F 49% 30.12 in 10.0 mi WNW 5.8 mph - N/A   Clear
6:03 AM 19.4 °F 7.9 °F 1.4 °F 46% 30.13 in 10.0 mi WNW 10.4 mph - N/A   Clear
6:24 AM 19.4 °F 7.2 °F -0.4 °F 42% 30.14 in 10.0 mi WNW 11.5 mph 17.3 mph N/A   Clear
7:51 AM 17.6 °F 5.0 °F -0.4 °F 45% 30.18 in 10.0 mi NW 11.5 mph 17.3 mph N/A   Clear
8:12 AM 17.6 °F 3.7 °F -2.2 °F 42% 30.20 in 10.0 mi WNW 13.8 mph 21.9 mph N/A   Clear
8:33 AM 17.6 °F 1.7 °F -4.0 °F 38% 30.21 in 10.0 mi WNW 18.4 mph 23.0 mph N/A   Clear
8:54 AM 19.4 °F 3.2 °F -5.8 °F 33% 30.22 in 10.0 mi West 20.7 mph 26.5 mph N/A   Clear
9:15 AM 19.4 °F 6.0 °F -5.8 °F 33% 30.22 in 10.0 mi West 13.8 mph 24.2 mph N/A   Clear
9:36 AM 19.4 °F 4.1 °F -5.8 °F 33% 30.24 in 10.0 mi West 18.4 mph 29.9 mph N/A   Clear
9:57 AM 21.2 °F 6.8 °F -5.8 °F 30% 30.24 in 10.0 mi WNW 17.3 mph 26.5 mph N/A   Clear
10:18 AM 21.2 °F 7.3 °F -5.8 °F 30% 30.24 in 10.0 mi NW 16.1 mph 21.9 mph N/A   Clear
10:39 AM 23.0 °F 9.6 °F -4.0 °F 31% 30.25 in 10.0 mi NW 16.1 mph 23.0 mph N/A   Clear
11:00 AM 23.0 °F 8.0 °F -5.8 °F 28% 30.24 in 10.0 mi West 20.7 mph 27.6 mph N/A   Clear
11:24 AM 23.0 °F 11.1 °F -5.8 °F 28% 30.23 in 10.0 mi WNW 12.7 mph 21.9 mph N/A   Clear
11:45 AM 23.0 °F 12.4 °F -5.8 °F 28% 30.23 in 10.0 mi NW 10.4 mph 24.2 mph N/A   Clear
12:06 PM 23.0 °F 10.1 °F -5.8 °F 28% 30.22 in 10.0 mi West 15.0 mph 26.5 mph N/A   Scattered Clouds
12:27 PM 23.0 °F 13.1 °F -5.8 °F 28% 30.21 in 10.0 mi WNW 9.2 mph 23.0 mph N/A   Scattered Clouds
12:48 PM 23.0 °F 12.4 °F -5.8 °F 28% 30.20 in 10.0 mi West 10.4 mph 21.9 mph N/A   Scattered Clouds
1:09 PM 24.8 °F 11.9 °F -5.8 °F 26% 30.19 in 10.0 mi West 16.1 mph 21.9 mph N/A   Scattered Clouds
1:30 PM 23.0 °F 13.1 °F -5.8 °F 28% 30.19 in 10.0 mi NW 9.2 mph 18.4 mph N/A   Scattered Clouds
1:51 PM 23.0 °F 12.4 °F -5.8 °F 28% 30.19 in 10.0 mi NW 10.4 mph 18.4 mph N/A   Scattered Clouds
2:12 PM 26.6 °F 15.2 °F -5.8 °F 24% 30.19 in 10.0 mi West 13.8 mph 24.2 mph N/A   Scattered Clouds
2:33 PM 24.8 °F 12.4 °F -5.8 °F 26% 30.19 in 10.0 mi WNW 15.0 mph 27.6 mph N/A   Clear
2:54 PM 24.8 °F 12.4 °F -5.8 °F 26% 30.19 in 10.0 mi WNW 15.0 mph 26.5 mph N/A   Clear
3:18 PM 24.8 °F 11.5 °F -5.8 °F 26% 30.20 in 10.0 mi West 17.3 mph 26.5 mph N/A   Clear
3:39 PM 23.0 °F 8.7 °F -5.8 °F 28% 30.20 in 10.0 mi West 18.4 mph 26.5 mph N/A   Clear
4:00 PM 23.0 °F 10.1 °F -5.8 °F 28% 30.20 in 10.0 mi WNW 15.0 mph 25.3 mph N/A   Clear
4:21 PM 23.0 °F 10.1 °F -5.8 °F 28% 30.21 in 10.0 mi West 15.0 mph 21.9 mph N/A   Clear
4:42 PM 23.0 °F 11.1 °F -5.8 °F 28% 30.21 in 10.0 mi WNW 12.7 mph 19.6 mph N/A   Clear
5:03 PM 21.2 °F 8.9 °F -4.0 °F 33% 30.22 in 10.0 mi WNW 12.7 mph 19.6 mph N/A   Clear
5:24 PM 21.2 °F 11.7 °F -4.0 °F 33% 30.24 in 10.0 mi WNW 8.1 mph - N/A   Clear
5:45 PM 21.2 °F 11.7 °F -5.8 °F 30% 30.25 in 10.0 mi WNW 8.1 mph 19.6 mph N/A   Clear
6:06 PM 19.4 °F 9.5 °F -4.0 °F 36% 30.26 in 10.0 mi West 8.1 mph - N/A   Clear
6:27 PM 19.4 °F 9.5 °F -4.0 °F 36% 30.27 in 10.0 mi NW 8.1 mph - N/A   Clear
6:51 PM 19.4 °F 8.6 °F -4.0 °F 36% 30.28 in 10.0 mi WNW 9.2 mph - N/A   Clear
7:12 PM 19.4 °F 8.6 °F -4.0 °F 36% 30.29 in 10.0 mi WNW 9.2 mph 16.1 mph N/A   Clear
7:33 PM 19.4 °F 8.6 °F -2.2 °F 39% 30.29 in 10.0 mi WNW 9.2 mph - N/A   Clear
7:54 PM 19.4 °F 11.5 °F -2.2 °F 39% 30.28 in 10.0 mi NW 5.8 mph - N/A   Clear
8:15 PM 17.6 °F 8.2 °F -0.4 °F 45% 30.29 in 10.0 mi NW 6.9 mph - N/A   Clear
8:36 PM 17.6 °F 8.2 °F -0.4 °F 45% 30.29 in 10.0 mi WNW 6.9 mph - N/A   Clear
8:57 PM 17.6 °F 10.7 °F -0.4 °F 45% 30.30 in 10.0 mi NNW 4.6 mph - N/A   Clear
9:18 PM 17.6 °F 9.3 °F -0.4 °F 45% 30.29 in 10.0 mi NW 5.8 mph - N/A   Clear
9:39 PM 17.6 °F 6.4 °F -0.4 °F 45% 30.30 in 10.0 mi NW 9.2 mph - N/A   Clear
10:00 PM 17.6 °F 6.4 °F -0.4 °F 45% 30.30 in 10.0 mi NNW 9.2 mph 19.6 mph N/A   Clear
10:24 PM 17.6 °F 4.3 °F -0.4 °F 45% 30.31 in 10.0 mi NNW 12.7 mph 19.6 mph N/A   Clear
11:06 PM 17.6 °F 12.3 °F -0.4 °F 45% 30.32 in 10.0 mi NW 3.5 mph - N/A   Clear
11:27 PM 15.8 °F - -0.4 °F 49% 30.32 in 10.0 mi Calm Calm - N/A   Clear
11:48 PM 14.0 °F 8.2 °F -0.4 °F 53% 30.32 in 10.0 mi NW 3.5 mph - N/A   Clear